Location: Clarion
(42.7316°N, 93.7330°W)
Time: 08:21:53
(UTC+00:00)

Cosmos 2369 Rocket - Pass Details

Date: 22 April 2026
Orbit: 829 x 850 km, 71.0° (Epoch: 17 May)

Event Time Altitude Azimuth Distance (km) Brightness Sun altitude
Rises 04:52:24 0° 317° (NW) 3,377 6.3 -32.0°
Reaches altitude 10° 04:55:53 10° 296° (WNW) 2,439 5.1 -32.3°
Maximum altitude 04:58:55 15° 262° (W) 2,096 4.3 -32.5°
Enters shadow 04:59:01 15° 261° (W) 2,096 4.3 -32.5°
